| time (UTC) | temp C | wind direction | speed KPH | gust KPH | rain 1hr cm | rain 24hr cm | rain mn cm | humidity % | barometer mb |
| 20260507060025 | 15 | 278 | 0.0 | 0.0 | 0.00 | 0.00 | 0.00 | 93 | 1017.2 |
| 20260507054524 | 15 | 278 | 0.0 | 4.8 | 0.00 | 0.00 | 0.00 | 93 | 1017.1 |
| 20260507053025 | 15 | 283 | 1.6 | 8.0 | 0.00 | 0.00 | 0.00 | 93 | 1017.1 |
| 20260507051524 | 16 | 260 | 0.0 | 11.3 | 0.00 | 0.00 | 0.00 | 93 | 1017.0 |
| 20260507050023 | 16 | 263 | 1.6 | 8.0 | 0.00 | 0.00 | 0.00 | 93 | 1017.0 |
| 20260507044522 | 16 | 288 | 1.6 | 6.4 | 0.00 | 0.00 | 0.00 | 92 | 1017.0 |
| 20260507043031 | 16 | 307 | 3.2 | 11.3 | 0.00 | 0.00 | 0.00 | 91 | 1017.0 |
| 20260507041524 | 16 | 260 | 1.6 | 4.8 | 0.00 | 0.00 | 0.00 | 91 | 1016.8 |
| 20260507040020 | 16 | 257 | 1.6 | 4.8 | 0.00 | 0.00 | 0.00 | 90 | 1016.8 |
| 20260507034520 | 16 | 285 | 3.2 | 6.4 | 0.00 | 0.00 | 0.00 | 89 | 1016.6 |
| 20260507033020 | 16 | 241 | 1.6 | 4.8 | 0.00 | 0.00 | 0.00 | 89 | 1016.4 |
| 20260507031519 | 16 | 283 | 3.2 | 11.3 | 0.00 | 0.00 | 0.00 | 89 | 1016.3 |
| 20260507030019 | 16 | 264 | 1.6 | 11.3 | 0.00 | 0.00 | 0.00 | 89 | 1016.1 |
| 20260507024518 | 16 | 262 | 4.8 | 14.5 | 0.00 | 0.00 | 0.00 | 88 | 1016.0 |
| 20260507023018 | 17 | 257 | 4.8 | 14.5 | 0.00 | 0.00 | 0.00 | 87 | 1015.8 |
| 20260507021517 | 17 | 262 | 4.8 | 12.9 | 0.00 | 0.00 | 0.00 | 85 | 1015.7 |
| 20260507020016 | 17 | 309 | 6.4 | 19.3 | 0.00 | 0.00 | 0.00 | 84 | 1015.6 |
| 20260507014516 | 17 | 293 | 4.8 | 14.5 | 0.00 | 0.00 | 0.00 | 85 | 1015.5 |
| 20260507013014 | 17 | 259 | 6.4 | 22.5 | 0.00 | 0.00 | 0.00 | 85 | 1015.5 |
| 20260507011525 | 18 | 312 | 4.8 | 19.3 | 0.00 | 0.00 | 0.00 | 85 | 1015.5 |
| 20260507010013 | 18 | 255 | 12.9 | 20.9 | 0.00 | 0.00 | 0.00 | 84 | 1015.3 |
| 20260507004517 | 18 | 309 | 11.3 | 22.5 | 0.00 | 0.00 | 0.00 | 83 | 1015.3 |
| 20260507003017 | 18 | 276 | 11.3 | 24.1 | 0.00 | 0.00 | 0.00 | 83 | 1015.4 |
| 20260507001510 | 18 | 274 | 11.3 | 20.9 | 0.00 | 0.00 | 0.00 | 82 | 1015.3 |
| 20260507000009 | 18 | 229 | 9.7 | 24.1 | 0.00 | 0.00 | 0.00 | 82 | 1015.4 |
| 20260506234510 | 18 | 293 | 12.9 | 22.5 | 0.00 | 0.00 | 0.00 | 81 | 1015.3 |
| 20260506233007 | 18 | 254 | 12.9 | 22.5 | 0.00 | 0.00 | 0.00 | 81 | 1015.2 |
| 20260506231505 | 19 | 307 | 12.9 | 25.7 | 0.00 | 0.00 | 0.00 | 78 | 1015.4 |
| 20260506230003 | 19 | 274 | 9.7 | 25.7 | 0.00 | 0.00 | 0.00 | 78 | 1015.6 |
| 20260506224600 | 19 | 242 | 11.3 | 22.5 | 0.00 | 0.00 | 0.00 | 80 | 1015.8 |
| 20260506223058 | 20 | 259 | 11.3 | 19.3 | 0.00 | 0.00 | 0.00 | 79 | 1016.0 |
| 20260506221555 | 19 | 255 | 9.7 | 17.7 | 0.00 | 0.00 | 0.00 | 77 | 1016.1 |
| 20260506214550 | 19 | 285 | 8.0 | 19.3 | 0.00 | 0.00 | 0.00 | 74 | 1016.5 |
| 20260506213050 | 20 | 195 | 8.0 | 17.7 | 0.00 | 0.00 | 0.00 | 72 | 1016.6 |
| 20260506211547 | 20 | 262 | 8.0 | 16.1 | 0.00 | 0.00 | 0.00 | 69 | 1016.7 |
| 20260506210048 | 20 | 259 | 6.4 | 17.7 | 0.00 | 0.00 | 0.00 | 70 | 1016.9 |
| 20260506204543 | 20 | 235 | 9.7 | 17.7 | 0.00 | 0.00 | 0.00 | 68 | 1017.0 |
| 20260506203119 | 20 | 162 | 8.0 | 19.3 | 0.00 | 0.00 | 0.00 | 73 | 1017.0 |
| 20260506201540 | 20 | 162 | 6.4 | 14.5 | 0.00 | 0.00 | 0.00 | 76 | 1017.3 |
| 20260506200047 | 20 | 231 | 8.0 | 17.7 | 0.00 | 0.00 | 0.00 | 76 | 1017.5 |
| 20260506194539 | 20 | 240 | 6.4 | 12.9 | 0.00 | 0.00 | 0.00 | 77 | 1017.5 |
| 20260506193036 | 19 | 256 | 6.4 | 16.1 | 0.00 | 0.00 | 0.00 | 76 | 1017.8 |
| 20260506191536 | 19 | 239 | 6.4 | 17.7 | 0.00 | 0.00 | 0.00 | 77 | 1017.8 |
| 20260506190045 | 19 | 278 | 8.0 | 14.5 | 0.00 | 0.00 | 0.00 | 78 | 1018.1 |
| 20260506184536 | 19 | 152 | 8.0 | 19.3 | 0.00 | 0.00 | 0.00 | 77 | 1018.1 |
| 20260506183033 | 19 | 201 | 4.8 | 12.9 | 0.00 | 0.00 | 0.00 | 77 | 1018.3 |
| 20260506181534 | 19 | 194 | 6.4 | 17.7 | 0.00 | 0.00 | 0.00 | 79 | 1018.3 |
| 20260506180031 | 19 | 206 | 4.8 | 16.1 | 0.00 | 0.00 | 0.00 | 79 | 1018.4 |
| 20260506174531 | 19 | 193 | 4.8 | 14.5 | 0.00 | 0.00 | 0.00 | 78 | 1018.3 |
| 20260506173036 | 19 | 273 | 4.8 | 12.9 | 0.00 | 0.00 | 0.00 | 78 | 1018.2 |
| 20260506164514 | 18 | 162 | 4.8 | 11.3 | 0.00 | 0.00 | 0.00 | 78 | 1018.1 |
| 20260506163022 | 18 | 188 | 4.8 | 11.3 | 0.00 | 0.00 | 0.00 | 77 | 1018.0 |
| 20260506161512 | 18 | 201 | 4.8 | 11.3 | 0.00 | 0.00 | 0.00 | 76 | 1018.0 |
| 20260506160010 | 18 | 142 | 1.6 | 6.4 | 0.00 | 0.00 | 0.00 | 75 | 1018.1 |
| 20260506154525 | 18 | 143 | 0.0 | 4.8 | 0.00 | 0.00 | 0.00 | 78 | 1018.2 |
| 20260506153005 | 18 | 65 | 0.0 | 3.2 | 0.00 | 0.00 | 0.00 | 78 | 1018.2 |
| 20260506151502 | 17 | 122 | 1.6 | 6.4 | 0.00 | 0.00 | 0.00 | 79 | 1018.2 |
| 20260506150100 | 17 | 58 | 0.0 | 6.4 | 0.00 | 0.00 | 0.00 | 80 | 1018.2 |
| 20260506144558 | 16 | 44 | 1.6 | 3.2 | 0.00 | 0.00 | 0.00 | 80 | 1018.2 |
| 20260506143055 | 15 | 44 | 1.6 | 4.8 | 0.00 | 0.00 | 0.00 | 82 | 1018.1 |
| 20260506141552 | 15 | 109 | 0.0 | 1.6 | 0.00 | 0.00 | 0.00 | 84 | 1017.9 |
| 20260506140049 | 14 | 84 | 0.0 | 3.2 | 0.00 | 0.00 | 0.00 | 88 | 1017.9 |
| 20260506134547 | 13 | 93 | 0.0 | 1.6 | 0.00 | 0.00 | 0.00 | 92 | 1017.8 |
| 20260506133048 | 12 | 93 | 0.0 | 1.6 | 0.00 | 0.00 | 0.00 | 94 | 1017.8 |
| 20260506131544 | 11 | 93 | 0.0 | 0.0 | 0.00 | 0.00 | 0.00 | 94 | 1017.6 |
| 20260506130042 | 11 | 93 | 0.0 | 0.0 | 0.00 | 0.00 | 0.00 | 93 | 1017.4 |
| 20260506124544 | 11 | 93 | 0.0 | 0.0 | 0.00 | 0.00 | 0.00 | 93 | 1017.2 |
| 20260506123039 | 12 | 93 | 0.0 | 0.0 | 0.00 | 0.00 | 0.00 | 93 | 1017.1 |
| 20260506121546 | 12 | 93 | 0.0 | 0.0 | 0.00 | 0.00 | 0.00 | 93 | 1017.0 |
| 20260506120040 | 12 | 94 | 0.0 | 0.0 | 0.00 | 0.00 | 0.00 | 93 | 1017.1 |
| 20260506114535 | 12 | 93 | 0.0 | 3.2 | 0.00 | 0.00 | 0.00 | 94 | 1017.0 |
| 20260506113034 | 12 | 110 | 0.0 | 1.6 | 0.00 | 0.00 | 0.00 | 94 | 1016.9 |
| 20260506111535 | 12 | 110 | 0.0 | 0.0 | 0.00 | 0.00 | 0.00 | 94 | 1016.9 |
| 20260506110030 | 12 | 110 | 0.0 | 1.6 | 0.00 | 0.00 | 0.00 | 94 | 1016.9 |
| 20260506104528 | 13 | 110 | 0.0 | 0.0 | 0.00 | 0.00 | 0.00 | 94 | 1017.0 |
| 20260506103027 | 13 | 110 | 0.0 | 0.0 | 0.00 | 0.00 | 0.00 | 93 | 1016.9 |
| 20260506101525 | 13 | 110 | 0.0 | 0.0 | 0.00 | 0.00 | 0.00 | 93 | 1016.9 |
| 20260506100023 | 13 | 110 | 0.0 | 1.6 | 0.00 | 0.00 | 0.00 | 93 | 1016.9 |
| 20260506094521 | 13 | 235 | 0.0 | 0.0 | 0.00 | 0.00 | 0.00 | 93 | 1016.9 |
| 20260506093020 | 13 | 235 | 0.0 | 0.0 | 0.00 | 0.00 | 0.00 | 92 | 1016.9 |
| 20260506091519 | 14 | 235 | 0.0 | 0.0 | 0.00 | 0.00 | 0.00 | 92 | 1017.0 |
| 20260506090016 | 14 | 235 | 0.0 | 1.6 | 0.00 | 0.00 | 0.00 | 92 | 1017.1 |
| 20260506084519 | 14 | 224 | 0.0 | 1.6 | 0.00 | 0.00 | 0.00 | 93 | 1017.2 |
| 20260506083017 | 14 | 204 | 0.0 | 3.2 | 0.00 | 0.00 | 0.00 | 93 | 1017.3 |
| 20260506081512 | 14 | 266 | 0.0 | 3.2 | 0.00 | 0.00 | 0.00 | 93 | 1017.3 |
| 20260506073009 | 15 | 198 | 0.0 | 4.8 | 0.00 | 0.00 | 0.00 | 93 | 1017.4 |
| 20260506071506 | 15 | 240 | 0.0 | 3.2 | 0.00 | 0.00 | 0.00 | 93 | 1017.3 |
| 20260506061557 | 15 | 266 | 0.0 | 3.2 | 0.00 | 0.00 | 0.00 | 91 | 1017.0 |